Probability
0 0 0 0 0 0 0 0 0 0 0 0 0 0 0 0 0 0 0 0 0 0 0 0 0 0 0 0 0 0 0 0 0 0 0 0 0 0 0 0 0 0 0
0 0 0 0 0 0 0 0 0 0 0 0 0 0 0 0 0 0 0 0 0 0 0 0 0 0 0 0 0 0 0 0 0 0 0 0 0 0 0 0 0 0 0
0 0 0 0 0 0 0 0 0 0 0 0 0 0 0 0 0 0 0 0 0 0 0 0 0 0 0 0 0 0 0 0 0 0 0 0 0 0 0 0 0 0 0
0 0 0 0 0 0 0 0 0 0 0 0 0 0 0 0 0 0 0 0 0 0 0 0 0 0 0 0 0 0 0 0 0 0 0 0 0 0 0 0 0 0 0
0 0 0 0 0 0 0 0 0 0 0 0 0 0 0 0 0 0 0 0 0 0 0 0 0 0 0 0 0 0 0 0 0 0 0 0 0 0 0 0 0 0 0
1 1 0 0 0 0 0 0 0 0 0 0 0 0 0 0 0 0 0 0 0 0 0 0 0 0 0 0 0 0 0 0 0 0 0 0 0 0 0 0 0 0 0
8 6 3 1 0 0 0 0 0 0 0 0 0 0 0 0 0 0 0 0 0 0 0 0 0 0 0 0 0 0 0 0 0 0 0 0 0 0 0 0 0 0 0
12 11 7 2 0 0 0 0 0 0 0 0 0 0 0 0 0 0 0 0 0 0 0 0 0 0 0 0 0 0 0 0 0 0 0 0 0 0 0 0 0 0 0
7 8 6 2 0 0 0 0 0 0 0 0 0 0 0 0 0 0 0 0 0 0 0 0 0 0 0 0 0 0 0 0 0 0 0 0 0 0 0 0 0 0 0
1 2 1 0 0 0 0 0 0 0 0 0 0 0 0 0 0 0 0 0 0 0 0 0 0 0 0 0 0 0 0 0 0 0 0 0 0 0 0 0 0 0 0
0 0 0 0 0 0 0 0 0 0 0 0 0 0 0 0 0 0 0 0 0 0 0 0 0 0 0 0 0 0 0 0 0 0 0 0 0 0 0 0 0 0 0
0 0 0 0 0 0 0 0 0 0 0 0 0 0 0 0 0 0 0 0 0 0 0 0 0 0 0 0 0 0 0 0 0 0 0 0 0 0 0 0 0 0 0
0 0 0 0 0 0 0 0 0 0 0 0 0 0 0 0 0 0 0 0 0 0 0 0 0 0 0 0 0 0 0 0 0 0 0 0 0 0 0 0 0 0 0
0 0 0 0 0 0 0 0 0 0 0 0 0 0 0 0 0 0 0 0 0 0 0 0 0 0 0 0 0 0 0 0 0 0 0 0 0 0 0 0 0 0 0
0 0 0 0 0 0 0 0 0 0 0 0 0 0 0 0 0 0 0 0 0 0 0 0 0 0 0 0 0 0 0 0 0 0 0 0 0 0 0 0 0 0 0
0 0 0 0 0 0 0 0 0 0 0 0 0 0 0 0 0 0 0 0 0 0 0 0 0 0 0 0 0 0 0 0 0 0 0 0 0 0 0 0 0 0 0
0 0 0 0 0 0 0 0 0 0 0 0 0 0 0 0 0 0 0 0 0 0 0 0 0 0 0 0 0 0 0 0 0 0 0 0 0 0 0 0 0 0 0
0 0 0 0 0 0 0 0 0 0 0 0 0 0 0 0 0 0 0 0 0 0 0 0 0 0 0 0 0 0 0 0 0 0 0 0 0 0 0 0 0 0 0
0 0 0 0 0 0 0 0 0 0 0 0 0 0 0 0 0 0 0 0 0 0 0 0 0 0 0 0 0 0 0 0 0 0 0 0 0 0 0 0 0 0 0
0 0 0 0 0 0 0 0 0 0 0 0 0 0 0 0 0 0 0 0 0 0 0 0 0 0 0 0 0 0 0 0 0 0 0 0 0 0 0 0 0 0 0
0 0 0 0 0 0 0 0 0 0 0 0 0 0 0 0 0 0 0 0 0 0 0 0 0 0 0 0 0 0 0 0 0 0 0 0 0 0 0 0 0 0 0
0 0 0 0 0 0 0 0 0 0 0 0 0 0 0 0 0 0 0 0 0 0 0 0 0 0 0 0 0 0 0 0 0 0 0 0 0 0 0 0 0 0 0
0 0 0 0 0 0 0 0 0 0 0 0 0 0 0 0 0 0 0 0 0 0 0 0 0 0 0 0 0 0 0 0 0 0 0 0 0 0 0 0 0 0 0
0 0 0 0 0 0 0 0 0 0 0 0 0 0 0 0 0 0 0 0 0 0 0 0 0 0 0 0 0 0 0 0 0 0 0 0 0 0 0 0 0 0 0
0 0 0 0 0 0 0 0 0 0 0 0 0 0 0 0 0 0 0 0 0 0 0 0 0 0 0 0 0 0 0 0 0 0 0 0 0 0 0 0 0 0 0
0 0 0 0 0 0 0 0 0 0 0 0 0 0 0 0 0 0 0 0 0 0 0 0 0 0 0 0 0 0 0 0 0 0 0 0 0 0 0 0 0 0 0
Wind_Speed
5 6 7 7 7 7 7 6 5 3 3 5 4 4 7 7 6 5 6 7 7 6 6 6 6 6 6 5 5 5 5 4 4 3 2 4 5 5 5 4 4 3 3
7 6 6 7 7 7 6 5 6 6 5 5 7 8 10 8 6 6 6 7 9 8 8 6 6 6 7 6 6 7 5 5 5 4 3 4 3 5 5 4 2 2 2
7 6 5 7 8 9 9 8 7 5 4 5 4 8 9 8 8 8 7 6 7 8 7 8 8 8 7 7 6 6 6 4 4 5 5 4 3 4 4 3 2 1 0
7 6 5 5 5 6 6 5 5 2 1 5 4 4 6 8 9 7 6 7 7 7 7 8 8 8 8 9 8 8 7 7 6 6 6 7 4 4 4 3 2 1 0
7 7 7 5 5 4 4 3 3 3 5 5 5 5 5 5 6 7 7 7 6 6 6 7 8 11 13 12 9 8 8 8 7 6 6 5 5 6 6 4 3 2 1
9 9 7 6 6 6 6 5 5 5 4 4 4 4 4 4 7 11 9 7 6 6 6 6 6 10 11 13 14 14 14 14 11 8 6 8 8 7 5 5 4 3 1
13 12 10 9 8 8 7 5 4 3 2 2 3 3 3 4 5 9 10 7 7 6 6 5 4 3 4 7 12 15 16 18 18 12 10 9 10 12 10 7 5 4 3
12 11 11 10 11 10 9 8 6 4 3 3 3 3 2 3 5 8 12 7 6 6 6 5 4 3 4 6 7 7 7 8 9 7 8 9 8 10 12 9 7 5 3
7 8 10 10 9 9 9 9 6 4 4 3 3 3 4 4 4 4 6 3 5 5 4 5 7 5 7 8 6 5 6 6 6 6 5 8 11 14 12 10 8 6 2
4 4 6 9 8 7 6 5 3 3 4 3 4 4 5 4 4 5 7 3 3 3 3 4 8 9 12 13 9 7 8 8 7 6 8 9 10 14 18 14 11 9 5
3 5 4 4 5 8 8 4 1 4 3 3 3 3 4 4 5 7 10 5 5 4 3 3 4 9 11 11 8 6 7 6 7 7 4 4 5 7 9 8 9 9 8
4 4 5 7 7 7 6 5 5 6 3 3 2 2 2 2 4 5 10 8 7 5 4 3 3 5 7 8 7 7 8 5 3 3 3 4 5 7 8 8 8 7 7
4 3 2 5 6 5 6 7 6 5 4 3 2 3 2 2 2 4 7 8 9 5 3 4 5 5 6 5 6 8 8 4 4 4 5 6 5 5 5 5 3 3 2
3 2 3 4 5 4 3 4 5 3 3 3 3 3 3 2 2 2 3 3 5 4 4 4 5 3 2 3 4 3 3 4 5 4 4 3 4 5 4 4 4 4 2
3 3 2 2 3 3 2 1 2 3 3 3 3 3 3 4 5 7 6 6 4 5 5 3 2 1 1 0 1 2 3 4 4 4 3 2 3 5 4 3 3 4 4
2 2 1 1 2 2 3 4 8 5 4 5 2 3 2 3 6 10 10 8 10 10 4 2 2 3 3 4 4 3 3 3 3 3 3 2 2 3 3 2 3 3 4
3 2 1 1 1 2 2 3 3 2 4 5 3 3 2 1 1 6 8 10 12 9 3 3 4 4 4 4 4 4 3 4 3 2 2 3 3 3 4 3 3 2 3
3 3 2 1 2 2 2 2 3 3 2 1 2 2 3 4 5 5 7 6 4 3 2 3 4 4 5 4 5 4 4 4 4 4 4 4 5 5 4 4 4 4 3
3 2 1 1 1 1 1 1 1 1 2 3 2 2 4 6 6 4 3 3 3 4 4 3 4 4 5 5 5 4 4 5 4 3 3 4 5 5 4 4 4 5 5
3 4 2 1 1 1 0 1 2 3 4 3 3 3 3 3 1 2 2 3 4 4 5 5 4 5 5 5 5 5 4 4 5 5 5 5 5 4 4 5 5 5 5
3 3 3 1 1 1 2 2 3 4 3 3 2 3 5 3 3 3 3 3 3 3 4 4 4 4 4 4 4 4 4 4 4 4 4 4 4 4 3 3 3 3 3
4 3 2 1 1 2 3 2 2 2 2 2 1 1 3 2 1 1 2 3 3 3 3 3 4 4 4 4 4 4 5 5 4 5 5 4 4 3 3 2 1 3 3
3 3 2 1 1 3 3 2 2 2 2 2 2 2 2 2 2 2 2 3 3 3 3 3 3 3 3 3 4 5 5 6 6 6 5 5 5 5 4 4 4 4 5
3 3 2 2 3 3 3 2 2 2 2 2 2 2 2 2 2 3 3 3 3 3 3 3 4 5 5 4 4 4 5 4 5 7 8 6 6 6 6 5 6 8 8
4 3 3 3 3 3 2 2 2 2 2 2 1 1 1 2 2 2 2 2 3 3 3 3 3 5 6 7 6 6 6 8 7 7 7 6 5 5 5 5 6 7 7
4 4 3 3 3 2 2 2 2 2 2 1 1 1 1 1 1 1 1 1 2 3 3 3 4 5 6 6 7 9 10 11 10 8 6 5 5 6 6 6 8 8 7
Wind_Direction
197 188 173 181 175 173 177 173 163 166 160 132 132 258 245 236 223 195 199 194 198 206 215 208 209 175 183 188 174 177 159 132 121 144 123 122 134 142 112 94 78 51 31
197 195 171 175 180 184 197 199 185 179 167 184 167 228 257 251 239 215 201 191 201 206 212 200 213 188 184 190 180 184 166 143 125 129 134 145 154 151 140 129 99 72 30
181 190 179 174 178 187 185 202 216 196 161 228 183 215 232 234 228 212 199 200 206 207 196 194 212 200 182 181 187 184 175 145 119 146 145 152 137 146 132 102 79 30 51
169 177 183 179 175 181 181 193 215 212 271 273 266 245 236 234 231 210 191 207 209 207 197 197 209 206 196 186 188 180 163 143 134 147 144 158 158 153 144 139 152 205 56
175 189 200 189 181 191 202 203 221 242 243 255 252 241 244 238 228 212 195 189 201 202 203 204 207 209 206 190 184 170 149 137 138 145 150 155 171 168 172 170 160 164 88
186 199 197 187 186 194 214 212 208 225 233 230 231 237 255 253 239 215 188 180 195 205 217 221 216 217 212 196 187 176 168 155 151 160 168 179 185 176 161 168 145 137 181
197 198 195 185 188 195 197 199 220 216 197 236 247 238 256 270 256 226 204 183 192 207 215 200 170 180 177 190 189 180 179 175 171 168 172 184 184 187 167 165 168 157 177
196 194 196 189 195 189 177 181 186 181 205 232 246 262 272 276 264 225 212 200 181 193 196 170 163 153 124 112 123 152 168 177 179 167 177 189 188 175 175 167 158 139 83
191 183 189 191 198 187 179 169 163 177 203 215 225 237 256 268 258 199 160 154 146 171 187 179 156 163 181 153 132 141 165 179 183 167 179 189 167 165 157 133 140 150 143
213 180 187 186 182 158 135 129 147 190 221 219 233 225 243 257 233 200 147 144 153 158 161 194 178 176 175 169 173 173 189 197 184 176 178 190 176 172 175 172 165 166 148
79 108 111 114 122 121 127 152 175 257 243 246 227 218 231 237 224 200 164 168 167 160 174 189 196 180 161 158 162 180 195 187 185 192 185 148 160 171 183 184 173 171 164
80 95 118 116 116 136 160 194 197 232 230 244 195 224 243 250 253 228 183 179 161 165 193 193 199 178 150 142 145 163 167 158 171 184 192 174 177 184 187 186 180 181 179
110 126 138 128 128 154 194 194 190 192 178 203 203 216 234 232 257 237 197 179 174 173 186 186 188 201 182 168 170 171 166 169 186 197 200 196 186 176 145 135 120 115 109
111 143 164 156 154 179 199 186 165 159 175 193 205 215 218 214 223 216 187 175 161 145 135 134 132 132 160 175 176 185 191 200 190 197 213 183 128 135 152 142 134 133 155
87 108 119 161 162 139 112 83 150 164 174 178 204 207 199 220 217 199 192 187 181 150 121 93 92 117 161 219 260 219 208 209 204 176 167 174 141 143 149 139 129 136 167
90 72 72 112 105 104 119 77 51 54 86 113 141 168 182 233 222 200 193 169 158 154 136 142 173 190 204 216 222 219 213 213 204 179 146 142 131 133 146 141 135 151 169
135 129 103 101 110 120 127 141 137 77 46 48 53 84 97 56 143 177 161 153 159 159 157 184 197 203 207 212 221 215 211 206 198 175 156 149 154 163 187 184 153 148 161
130 131 130 130 144 151 159 165 166 161 142 70 39 58 90 88 88 116 133 129 157 197 204 202 209 213 219 217 219 220 211 198 196 193 178 177 169 172 186 185 175 168 167
137 142 145 131 102 104 109 79 94 120 126 123 121 91 88 90 90 107 151 159 186 212 222 220 214 210 215 213 212 216 213 206 196 198 188 177 181 176 176 177 182 187 181
155 159 162 113 83 62 72 145 134 132 136 152 174 169 154 133 150 198 222 223 210 214 215 221 217 215 216 211 206 200 200 201 192 194 200 189 182 184 181 177 184 189 194
161 166 151 113 125 127 134 128 137 143 148 170 203 181 179 181 214 229 231 236 235 231 228 226 228 227 223 216 203 199 201 205 195 184 180 172 163 156 156 162 184 200 194
156 151 144 188 192 166 157 145 136 148 165 173 155 159 195 207 230 261 263 262 259 255 250 245 240 232 218 207 201 198 204 211 205 190 183 173 160 144 137 147 210 223 220
146 146 151 178 110 128 130 135 138 140 144 158 161 184 207 228 258 264 258 251 252 254 253 245 246 249 242 224 209 204 205 207 202 194 187 180 179 176 178 190 193 222 223
136 141 138 99 109 127 136 141 152 161 156 166 185 195 216 244 256 263 258 250 251 260 261 250 241 242 239 230 219 215 218 206 184 184 188 186 188 187 189 200 208 221 228
135 129 129 119 108 116 137 157 168 175 181 182 193 197 226 240 265 286 279 253 250 260 261 255 247 240 239 234 226 218 213 205 196 182 177 180 182 187 197 200 208 219 218
125 127 130 121 112 115 138 161 152 142 153 154 167 197 203 292 319 324 327 314 289 285 285 276 263 257 249 235 231 225 211 200 199 199 185 185 196 206 214 218 223 225 217